DateTimeUTC,F1_A11,F1_S11,BsB_S11,BsG_S11,BsR_S11,BbsB_S11,BbsG_S11,BbsR_S11,BaB_A11,BaG_A11,BaR_A11,T_S11,U_S11,P_S11,T1_A11
2020-09-26T00:00:00Z,00000380,20000600,,,,,,,,,,23.1,01.5,0655.4,30.9
2020-09-26T00:01:00Z,00000380,20000600,,,,,,,,,,23.0,01.5,0655.4,30.9
2020-09-26T00:02:00Z,00000380,20000600,,,,,,,,,,23.1,01.5,0655.4,30.9
2020-09-26T00:03:00Z,00000380,60000600,,,,,,,,,,23.1,01.5,0655.4,31.0
2020-09-26T00:04:00Z,00000380,40000600,0000.46,0000.01,0000.88,0000.19,-000.18,0000.31,0000.17,-000.01,-000.04,23.1,01.6,0656.2,30.9
2020-09-26T00:05:00Z,00000380,00000600,-000.38,0000.86,0000.86,0000.51,0000.38,-000.03,-000.07,0000.14,0000.03,23.1,01.7,0656.3,30.9
2020-09-26T00:06:00Z,00000380,00000600,0000.51,0000.47,0000.55,-000.32,0000.48,-000.04,-000.01,0000.12,0000.02,23.0,01.6,0656.4,30.9
2020-09-26T00:07:00Z,00000380,00000600,0000.85,0000.16,0000.59,0000.16,0000.32,0000.33,0000.06,-000.16,0000.17,23.0,01.5,0656.4,30.9
2020-09-26T00:08:00Z,00000380,00000600,0000.37,0000.23,0000.79,-000.63,0000.17,0000.44,0000.08,0000.16,0000.01,23.0,01.6,0656.4,30.9
2020-09-26T00:09:00Z,00000380,00000600,-000.28,0000.41,0000.10,-000.29,0000.17,0000.10,0000.15,-000.11,-000.00,23.0,01.6,0656.4,30.9
2020-09-26T00:10:00Z,00000380,00000600,0000.79,0000.23,0000.29,0000.29,0000.37,0000.44,-000.05,-000.05,-000.08,22.9,01.6,0656.5,30.9
2020-09-26T00:11:00Z,00000380,00000600,-000.37,0000.48,0000.56,-000.22,0000.33,0000.29,-000.04,0000.12,0000.16,22.9,01.6,0656.5,30.9
2020-09-26T00:12:00Z,00000380,00000600,-000.24,0000.63,0000.25,-000.44,0000.42,0000.53,-000.00,-000.26,-000.13,22.9,01.6,0656.5,30.9
2020-09-26T00:13:00Z,00000380,00000600,-000.33,0000.82,0000.38,0000.36,0000.15,0000.04,0000.15,0000.18,0000.05,22.8,01.7,0656.4,30.9
2020-09-26T00:14:00Z,00000380,00000600,-000.47,0000.11,0000.65,0000.44,0000.40,0000.31,0000.06,0000.09,0000.05,22.9,01.6,0656.5,30.9
2020-09-26T00:15:00Z,00000380,00000600,0000.54,0000.66,0000.31,0000.10,0000.14,-000.08,0000.13,0000.00,0000.06,22.9,01.6,0656.4,30.9
2020-09-26T00:16:00Z,00000380,00000600,0000.20,0000.26,0000.74,0000.73,0000.14,-000.16,-000.09,-000.02,0000.03,22.9,01.6,0656.5,30.9
2020-09-26T00:17:00Z,00000380,00000600,0000.52,0000.55,0000.45,-000.45,0000.39,0000.21,0000.14,0000.22,0000.21,23.0,01.6,0656.4,30.9
2020-09-26T00:18:00Z,00000380,00000600,0000.43,0000.86,-000.15,0000.70,0000.16,-000.05,0000.04,0000.08,-000.22,23.0,01.7,0656.4,30.9
2020-09-26T00:19:00Z,00000380,00000600,0000.00,0001.15,0000.53,-000.16,0000.33,-000.23,0000.01,0000.07,0000.08,23.0,01.6,0656.4,30.9
2020-09-26T00:20:00Z,00000380,00000600,0000.47,0000.34,0000.60,0000.39,-000.03,-000.22,0000.03,-000.05,0000.17,23.0,01.6,0656.4,31.0
2020-09-26T00:21:00Z,00000380,00000600,0001.61,0000.72,0000.38,-000.03,0000.35,-000.04,0000.12,0000.29,0000.02,23.1,01.6,0656.4,30.9
2020-09-26T00:22:00Z,00000380,00000600,-000.25,0000.46,0000.19,-000.14,0000.12,0000.06,-000.09,-000.08,-000.09,23.1,01.6,0656.5,30.9
2020-09-26T00:23:00Z,00000380,00000600,-000.26,0000.67,0000.64,0000.11,0000.39,0000.13,-000.05,0000.04,-000.02,23.0,01.6,0656.5,30.9
2020-09-26T00:24:00Z,00000380,00000600,0000.76,0000.27,0000.35,0000.29,0000.25,0000.15,0000.23,0000.05,0000.14,23.0,01.6,0656.5,30.9
2020-09-26T00:25:00Z,00000380,00000600,0000.58,0000.39,0000.41,0000.13,-000.09,-000.08,-000.02,-000.01,0000.01,23.0,01.6,0656.5,30.9
2020-09-26T00:26:00Z,00000380,00000600,0000.73,0000.41,0000.70,-001.02,0000.02,0000.42,0000.09,-000.02,-000.06,22.9,01.6,0656.5,30.9
2020-09-26T00:27:00Z,00000380,00000600,0000.93,0000.46,0000.49,-000.03,0000.03,-000.07,-000.03,0000.09,0000.03,22.9,01.6,0656.5,30.9
2020-09-26T00:28:00Z,00000380,00000600,0000.29,0000.50,0000.43,0000.58,0000.25,-000.19,0000.23,-000.01,0000.13,22.9,01.6,0656.5,30.9
2020-09-26T00:29:00Z,00000380,00000600,0000.19,0000.43,0000.39,0000.34,0000.17,-000.00,-000.09,0000.07,0000.05,22.9,01.6,0656.5,30.9
2020-09-26T00:30:00Z,00000380,00000600,0000.21,0000.44,0000.65,0000.18,0000.27,0000.00,0000.05,0000.15,0000.01,22.9,01.6,0656.5,30.9
2020-09-26T00:31:00Z,00000380,00000600,-000.32,0000.53,0000.47,-000.10,0000.09,0000.29,0000.05,-000.12,0000.09,23.0,01.6,0656.5,30.9
2020-09-26T00:32:00Z,00000380,00000600,0000.42,0000.16,0000.24,0000.79,0000.55,0000.18,0000.06,0000.18,-000.07,23.0,01.7,0656.5,30.9
2020-09-26T00:33:00Z,00000380,00000600,0000.77,0000.78,0000.54,0000.48,0000.02,0000.18,-000.03,0000.11,0000.17,23.0,01.6,0656.5,30.9
2020-09-26T00:34:00Z,00000380,00000600,-001.30,0000.67,0000.50,0000.09,0000.25,0000.42,0000.21,-000.05,-000.10,23.0,01.6,0656.6,30.9
2020-09-26T00:35:00Z,00000380,00000600,-000.73,0000.12,-000.14,0000.03,0000.53,0000.23,-000.06,0000.20,0000.03,23.1,01.6,0656.5,30.9
2020-09-26T00:36:00Z,00000380,00000600,0000.71,-000.10,0000.34,-000.41,0000.17,-000.14,0000.27,0000.07,0000.13,23.0,01.6,0656.6,30.9
2020-09-26T00:37:00Z,00000380,00000600,-000.53,0000.69,0000.56,0000.67,0000.24,-000.30,-000.15,-000.03,0000.12,23.0,01.6,0656.6,30.9
2020-09-26T00:38:00Z,00000380,00000600,0000.96,0000.60,0000.51,0000.02,0000.21,-000.09,0000.10,0000.04,-000.18,23.0,01.6,0656.6,30.9
2020-09-26T00:39:00Z,00000380,00000600,-000.46,0001.41,-000.10,0000.67,0000.41,0000.14,0000.03,0000.01,0000.10,23.0,01.6,0656.6,30.9
2020-09-26T00:40:00Z,00000380,00000600,0001.15,0000.95,0000.44,0000.65,0000.24,-000.06,0000.00,-000.02,0000.03,23.0,01.5,0656.6,30.9
2020-09-26T00:41:00Z,00000380,00000600,0000.08,0000.35,-000.03,0000.18,-000.04,0000.12,0000.02,0000.03,0000.03,22.9,01.6,0656.6,30.9
2020-09-26T00:42:00Z,00000380,00000600,0000.30,0000.36,-000.07,0000.66,0000.18,0000.11,0000.15,-000.07,0000.00,22.9,01.7,0656.6,30.9
2020-09-26T00:43:00Z,00000380,00000600,0000.36,0000.63,0000.19,0000.34,0000.54,-000.01,-000.02,0000.03,-000.04,22.9,01.6,0656.6,30.9
2020-09-26T00:44:00Z,00000380,00000600,0001.15,0000.38,0000.46,0000.27,-000.10,-000.10,0000.17,0000.01,0000.18,22.9,01.7,0656.6,30.9
2020-09-26T00:45:00Z,00000380,00000600,-000.44,-000.05,0000.34,0000.41,-000.20,0000.27,-000.06,0000.11,-000.01,22.9,01.7,0656.6,30.9
2020-09-26T00:46:00Z,00000380,00000600,0000.28,-000.26,-000.41,-000.64,0000.12,-000.33,0000.01,0000.12,0000.12,23.0,01.7,0656.6,30.9
2020-09-26T00:47:00Z,00000380,00000600,0000.59,0000.81,0000.56,-000.30,0000.44,0000.21,0000.01,0000.06,-000.13,23.0,01.6,0656.6,30.9
2020-09-26T00:48:00Z,00000380,00000600,-000.15,0000.56,0000.56,0000.47,0000.00,0000.21,-000.04,-000.00,-000.01,23.0,01.6,0656.6,30.9
2020-09-26T00:49:00Z,00000380,00000600,0000.37,0000.52,0000.82,0000.45,-000.31,0000.15,0000.15,-000.08,0000.19,23.0,01.5,0656.6,31.0
2020-09-26T00:50:00Z,00000380,00000600,0000.57,0000.39,0000.58,-000.07,0000.27,-000.36,0000.01,0000.14,-000.08,23.1,01.5,0656.6,30.9
2020-09-26T00:51:00Z,00000380,00000600,-000.10,0000.57,0000.05,0000.21,0000.03,-000.15,0000.07,-000.02,0000.15,23.1,01.5,0656.6,30.9
2020-09-26T00:52:00Z,00000380,00000600,0000.54,0000.67,0000.82,-000.07,0000.43,0000.20,-000.03,-000.01,-000.18,23.0,01.5,0656.6,30.9
2020-09-26T00:53:00Z,00000380,00000600,-000.56,0000.42,0000.08,0000.14,-000.02,-000.16,0000.09,0000.10,0000.11,23.0,01.5,0656.6,30.9
2020-09-26T00:54:00Z,00000380,00000600,-000.35,-000.40,0000.10,-000.10,0000.25,0000.07,0000.07,-000.05,-000.03,23.0,01.5,0656.6,30.9
2020-09-26T00:55:00Z,00000380,00000600,0000.89,0000.11,0000.06,0000.19,0000.61,-000.06,-000.16,0000.06,0000.04,23.0,01.6,0656.6,30.9
2020-09-26T00:56:00Z,00000380,00000600,0000.51,0000.25,0000.23,0000.61,0000.55,0000.02,-000.05,-000.03,0000.04,22.9,01.5,0656.6,30.9
2020-09-26T00:57:00Z,00000380,40000600,,,,,,,,,,23.0,01.1,0656.5,30.9
2020-09-26T00:58:00Z,00000380,60000600,,,,,,,,,,23.0,01.4,0655.6,30.9
2020-09-26T00:59:00Z,00000380,20000600,,,,,,,,,,23.1,01.3,0655.6,30.9
2020-09-26T01:00:00Z,00000380,20000600,,,,,,,,,,23.1,01.3,0655.6,30.9
2020-09-26T01:01:00Z,00000380,20000600,,,,,,,,,,23.2,01.3,0655.6,30.9
2020-09-26T01:02:00Z,00000380,20000600,,,,,,,,,,23.2,01.3,0655.6,30.9
2020-09-26T01:03:00Z,00000380,60000600,,,,,,,,,,23.2,01.3,0655.6,30.9
2020-09-26T01:04:00Z,00000380,40000600,-000.68,0000.28,0000.34,0000.06,-000.03,-000.31,-000.04,-000.16,-000.12,23.1,01.3,0656.5,31.0
2020-09-26T01:05:00Z,00000380,01000600,-000.73,0000.07,0000.19,-000.14,0000.14,0000.02,0000.18,0000.14,0000.16,23.1,01.3,0656.5,30.9
2020-09-26T01:06:00Z,00000380,01000600,0002.43,0000.22,0000.72,-000.21,0000.12,0000.27,-000.04,0000.00,-000.03,23.1,01.4,0656.6,30.9
2020-09-26T01:07:00Z,00000380,01000600,0000.06,0001.08,0000.85,-000.46,-000.02,0000.14,-000.11,-000.09,-000.08,23.0,01.4,0656.5,30.9
2020-09-26T01:08:00Z,00000380,01000600,0000.40,0001.39,0000.14,0000.17,0000.50,-000.14,0000.07,0000.01,0000.03,23.0,01.4,0656.6,30.9
2020-09-26T01:09:00Z,00000380,00000600,0001.32,0000.55,0000.08,0000.26,0000.15,-000.02,0000.08,0000.09,-000.07,23.0,01.4,0656.6,30.9
2020-09-26T01:10:00Z,00000380,01000600,0000.25,0000.29,0000.42,0000.24,0000.22,0000.32,-000.12,-000.16,-000.01,23.0,01.3,0656.6,30.9
2020-09-26T01:11:00Z,00000380,00000600,0000.37,0000.66,0000.25,-000.45,0000.16,-000.09,0000.11,0000.15,0000.18,22.9,01.3,0656.6,30.9
2020-09-26T01:12:00Z,00000380,01000600,0000.96,0000.65,0000.32,0000.82,0000.19,0000.39,-000.11,-000.20,-000.12,22.9,01.3,0656.6,30.9
2020-09-26T01:13:00Z,00000380,00000600,0000.90,0000.60,0001.01,0000.08,-000.00,0000.18,0000.03,0000.17,0000.08,22.9,01.3,0656.6,30.9
2020-09-26T01:14:00Z,00000380,01000600,0001.32,0000.25,0000.31,-000.23,-000.11,0000.31,0000.10,-000.07,0000.01,22.9,01.3,0656.6,30.9
2020-09-26T01:15:00Z,00000380,00000600,0000.24,0000.96,0000.44,-000.47,-000.15,-000.07,0000.08,0000.03,-000.00,22.9,01.3,0656.6,30.9
2020-09-26T01:16:00Z,00000380,01000600,-001.23,0000.65,0000.04,-000.05,0000.06,0000.44,0000.17,-000.10,-000.04,23.0,01.3,0656.6,30.9
2020-09-26T01:17:00Z,00000380,01000600,-000.79,0000.12,0000.52,0000.12,0000.08,0000.07,-000.19,0000.06,0000.01,23.0,01.3,0656.6,30.9
2020-09-26T01:18:00Z,00000380,01000600,0000.99,-000.00,0000.63,-000.14,-000.06,0000.36,0000.13,0000.20,0000.15,23.0,01.3,0656.6,30.9
2020-09-26T01:19:00Z,00000380,01000600,0001.55,0000.41,0001.05,-000.56,-000.31,0000.10,-000.14,-000.13,-000.05,23.0,01.3,0656.6,30.9
2020-09-26T01:20:00Z,00000380,00000600,0001.70,0000.71,0000.73,0000.25,0000.15,0000.17,0000.08,0000.13,-000.04,23.0,01.3,0656.6,30.9
2020-09-26T01:21:00Z,00000380,00000600,0000.77,0000.29,0000.66,0000.68,-000.18,-000.19,0000.09,-000.05,0000.03,23.0,01.2,0656.6,30.9
2020-09-26T01:22:00Z,00000380,01000600,-000.18,0000.40,0000.94,-000.44,-000.10,-000.22,-000.02,0000.27,0000.10,23.0,01.2,0656.6,30.9
2020-09-26T01:23:00Z,00000380,01000600,0000.49,0000.41,0000.54,0000.21,-000.02,0000.20,-000.01,0000.00,-000.08,23.0,01.2,0656.6,30.9
2020-09-26T01:24:00Z,00000380,01000600,0000.95,0000.35,0000.74,0000.00,-000.05,-000.03,0000.06,-000.11,0000.02,23.0,01.2,0656.6,30.9
2020-09-26T01:25:00Z,00000380,01000600,0000.72,0000.89,0000.70,-000.38,0000.06,-000.06,-000.07,-000.10,-000.09,22.9,01.2,0656.6,30.9
2020-09-26T01:26:00Z,00000380,01000600,0000.92,0000.52,0000.56,0000.34,0000.05,-000.15,-000.06,-000.01,0000.03,22.9,01.2,0656.6,30.9
2020-09-26T01:27:00Z,00000380,01000600,0001.02,0000.16,0000.56,-000.05,0000.23,-000.10,0000.01,-000.06,0000.02,22.9,01.2,0656.6,30.9
2020-09-26T01:28:00Z,00000380,01000600,0001.16,0000.33,0000.43,0000.00,0000.15,-000.17,0000.12,0000.16,0000.11,22.9,01.2,0656.6,30.9
2020-09-26T01:29:00Z,00000380,01000600,0000.18,0000.27,0000.83,0000.06,0000.16,0000.30,-000.04,-000.13,-000.01,22.9,01.2,0656.6,30.9
2020-09-26T01:30:00Z,00000380,01000600,0000.69,0000.24,0000.00,0000.10,-000.04,0000.02,-000.01,-000.04,-000.15,22.9,01.2,0656.7,30.9
2020-09-26T01:31:00Z,00000380,01000600,-000.07,0000.87,0000.79,0000.01,0000.10,-000.12,-000.03,0000.19,0000.16,23.0,01.2,0656.7,30.9
2020-09-26T01:32:00Z,00000380,01000600,0000.74,0000.30,0000.50,0000.10,0000.07,0000.32,0000.06,-000.03,-000.00,23.0,01.2,0656.7,30.9
2020-09-26T01:33:00Z,00000380,01000600,0000.82,0000.69,0000.19,0000.12,0000.01,0000.12,-000.06,0000.02,-000.08,23.0,01.2,0656.7,30.9
2020-09-26T01:34:00Z,00000380,01000600,0000.86,0000.20,0000.81,0000.19,0000.19,0000.25,0000.15,0000.09,0000.29,23.1,01.1,0656.7,30.9
2020-09-26T01:35:00Z,00000380,01000600,-000.00,0000.61,0000.35,0000.64,0000.05,-000.13,-000.16,0000.07,-000.24,23.1,01.2,0656.6,31.0
2020-09-26T01:36:00Z,00000380,01000600,0001.63,0000.62,0000.54,-000.49,-000.04,-000.02,0000.16,-000.05,0000.13,23.1,01.2,0656.7,30.9
2020-09-26T01:37:00Z,00000380,01000600,0000.55,0000.74,0000.52,0000.36,0000.13,0000.26,-000.13,0000.17,0000.09,23.1,01.2,0656.6,30.9
2020-09-26T01:38:00Z,00000380,01000600,0000.65,-000.06,0000.54,0000.14,0000.14,0000.49,0000.10,-000.03,-000.11,23.0,01.2,0656.6,30.9
2020-09-26T01:39:00Z,00000380,01000600,0000.34,-000.39,0001.03,0000.25,0000.18,0000.35,-000.03,0000.09,-000.18,23.0,01.2,0656.7,30.9
2020-09-26T01:40:00Z,00000380,01000600,-000.51,0000.39,0000.60,-000.58,0000.04,0000.06,0000.09,-000.09,0000.12,23.0,01.1,0656.7,30.9
2020-09-26T01:41:00Z,00000380,01000600,-000.28,0000.56,0000.83,-000.15,0000.27,0000.27,-000.05,0000.01,0000.01,23.0,01.1,0656.7,30.9
2020-09-26T01:42:00Z,00000380,01000600,0000.57,0000.00,0001.03,-000.11,0000.07,0000.20,-000.14,-000.28,0000.01,23.0,01.2,0656.7,30.9
2020-09-26T01:43:00Z,00000380,01000600,0000.62,-000.31,-000.18,0000.07,-000.06,-000.09,0000.14,0000.11,0000.03,22.9,01.1,0656.7,30.9
2020-09-26T01:44:00Z,00000380,01000600,0000.16,0000.10,0000.79,0000.05,-000.31,-000.08,-000.08,0000.07,0000.02,23.0,01.1,0656.7,30.9
2020-09-26T01:45:00Z,00000380,01000600,0001.01,0000.19,0000.56,0000.41,0000.34,0000.17,-000.01,-000.05,0000.04,23.0,01.1,0656.7,30.9
2020-09-26T01:46:00Z,00000380,01000600,0000.02,0000.58,0000.49,-000.14,0000.38,0000.49,0000.21,0000.09,-000.05,23.0,01.1,0656.7,30.9
2020-09-26T01:47:00Z,00000380,01000600,-000.84,0000.42,0000.97,-000.36,-000.03,0000.28,-000.04,-000.01,0000.07,23.0,01.1,0656.7,30.9
2020-09-26T01:48:00Z,00000380,01000600,0000.86,0001.09,0000.60,-000.03,0000.08,0000.04,0000.13,-000.07,-000.03,23.1,01.1,0656.7,30.9
2020-09-26T01:49:00Z,00000380,01000600,-000.16,0000.70,0000.83,0000.02,-000.16,0000.14,0000.07,0000.18,0000.01,23.1,01.1,0656.7,30.9
2020-09-26T01:50:00Z,00000380,01000600,0000.53,0000.87,0000.60,-000.37,0000.46,-000.15,-000.14,0000.18,0000.14,23.1,01.1,0656.6,30.9
2020-09-26T01:51:00Z,00000380,01000600,0001.13,0000.82,0000.50,0000.68,0000.30,-000.29,-000.05,-000.15,-000.07,23.1,01.0,0656.6,30.9
2020-09-26T01:52:00Z,00000380,01000600,0000.84,0000.50,0000.05,0000.02,0000.56,-000.07,0000.11,-000.12,-000.02,23.0,01.0,0656.7,30.9
2020-09-26T01:53:00Z,00000380,01000600,0000.31,-000.11,0000.44,-000.12,-000.06,-000.14,-000.21,0000.13,-000.05,23.0,01.0,0656.7,30.9
2020-09-26T01:54:00Z,00000380,01000600,0000.99,0000.19,0000.93,0000.00,0000.20,0000.53,-000.02,-000.15,-000.13,23.0,01.0,0656.6,30.9
2020-09-26T01:55:00Z,00000380,01000600,-000.67,0000.58,0000.59,0000.63,-000.05,-000.28,0000.19,-000.03,0000.01,23.0,01.0,0656.7,30.9
2020-09-26T01:56:00Z,00000380,01000600,0000.10,-000.09,0000.47,0000.69,-000.13,0000.56,-000.09,0000.07,0000.04,22.9,01.0,0656.7,30.9
2020-09-26T01:57:00Z,00000380,41000600,,,,,,,,,,23.0,00.8,0656.6,30.9
2020-09-26T01:58:00Z,00000380,61000600,,,,,,,,,,23.0,01.0,0655.7,30.9
2020-09-26T01:59:00Z,00000380,20000600,,,,,,,,,,23.1,01.0,0655.7,30.9
2020-09-26T02:00:00Z,00000380,20000600,,,,,,,,,,23.1,01.0,0655.7,30.9
2020-09-26T02:01:00Z,00000380,20000600,,,,,,,,,,23.2,01.0,0655.7,30.9
2020-09-26T02:02:00Z,00000380,20000600,,,,,,,,,,23.2,01.0,0655.7,30.9
2020-09-26T02:03:00Z,00000380,60000600,,,,,,,,,,23.2,01.0,0655.7,31.0
2020-09-26T02:04:00Z,00000380,41000600,0001.07,0000.58,0000.12,0000.36,-000.01,0000.06,0000.10,-000.22,-000.14,23.2,00.9,0656.6,31.0
2020-09-26T02:05:00Z,00000380,01000600,0001.31,0000.08,0000.40,0000.78,-000.07,0000.07,-000.15,0000.19,0000.13,23.2,01.0,0656.7,31.0
2020-09-26T02:06:00Z,00000380,01000600,-000.40,-000.05,0000.82,-000.26,0000.22,0000.34,-000.00,-000.20,-000.01,23.1,01.0,0656.7,31.0
2020-09-26T02:07:00Z,00000380,01000600,0000.07,0000.40,0000.13,0000.06,-000.09,0000.27,0000.13,0000.22,-000.04,23.1,01.0,0656.7,31.0
2020-09-26T02:08:00Z,00000380,01000600,0000.37,0000.49,-000.04,-000.12,-000.02,0000.20,-000.09,-000.16,0000.05,23.1,01.0,0656.7,31.0
2020-09-26T02:09:00Z,00000380,01000600,0000.73,0000.05,0000.74,0000.08,-000.33,0000.43,0000.01,0000.24,0000.08,23.1,01.0,0656.7,31.0
2020-09-26T02:10:00Z,00000380,01000600,0000.73,0000.09,0000.57,0000.25,0000.16,-000.00,0000.10,-000.18,-000.00,23.0,01.0,0656.7,30.9
2020-09-26T02:11:00Z,00000380,01000600,0001.01,0000.14,0000.86,-000.13,0000.28,0000.19,0000.13,0000.21,0000.13,23.0,01.1,0656.7,30.9
2020-09-26T02:12:00Z,00000380,01000600,0000.82,0000.27,0000.65,0000.32,-000.19,0000.17,0000.06,-000.14,-000.25,23.0,01.0,0656.7,30.9
2020-09-26T02:13:00Z,00000380,01000600,0000.97,0000.50,0000.31,-000.55,0000.02,-000.05,0000.01,0000.03,0000.25,23.0,01.1,0656.7,30.9
2020-09-26T02:14:00Z,00000380,01000600,-000.13,-000.29,0000.54,0000.91,-000.28,0000.23,-000.13,-000.01,0000.03,23.0,01.0,0656.7,30.9
2020-09-26T02:15:00Z,00000380,01000600,0000.59,0000.20,0000.74,-000.18,0000.01,0000.11,0000.29,0000.10,0000.12,23.0,01.0,0656.7,30.9
2020-09-26T02:16:00Z,00000380,01000600,0001.01,0000.18,0001.07,0000.09,-000.07,0000.37,-000.10,0000.01,0000.01,23.0,01.0,0656.7,30.9
2020-09-26T02:17:00Z,00000380,01000600,0001.14,0000.13,0000.65,0000.28,0000.14,0000.16,0000.13,0000.26,0000.10,23.1,01.0,0656.7,30.9
2020-09-26T02:18:00Z,00000380,01000600,0000.53,0000.14,0000.74,0001.16,-000.17,-000.08,0000.04,-000.08,-000.11,23.1,01.0,0656.7,30.9
2020-09-26T02:19:00Z,00000380,01000600,0000.57,0000.49,0000.61,-000.40,-000.14,0000.12,-000.03,-000.02,0000.05,23.1,01.0,0656.6,30.9
2020-09-26T02:20:00Z,00000380,01000600,-000.50,0000.11,0000.66,0000.87,0000.22,-000.12,0000.12,0000.31,0000.03,23.1,01.1,0656.6,30.9
2020-09-26T02:21:00Z,00000380,01000600,0001.26,0000.37,0000.77,-000.42,0000.33,0000.14,-000.13,-000.09,0000.06,23.1,01.1,0656.6,30.9
2020-09-26T02:22:00Z,00000380,01000600,0000.43,0000.15,0000.56,0000.91,-000.32,0000.52,0000.16,0000.03,0000.00,23.0,01.0,0656.6,30.9
2020-09-26T02:23:00Z,00000380,01000600,0000.83,-000.03,0000.52,-000.24,-000.43,-000.24,-000.14,0000.02,-000.03,23.0,01.0,0656.6,30.9
2020-09-26T02:24:00Z,00000380,01000600,-000.80,0000.53,0000.33,0000.33,0000.43,0000.21,-000.03,-000.08,-000.06,23.0,01.1,0656.6,30.9
2020-09-26T02:25:00Z,00000380,01000600,0000.27,0000.15,0000.59,0000.05,-000.14,-000.23,0000.16,0000.21,0000.10,23.0,01.1,0656.6,30.9
2020-09-26T02:26:00Z,00000380,01000600,0000.49,0000.58,0000.79,0000.63,0000.50,0000.23,-000.06,-000.12,-000.10,23.0,01.0,0656.6,30.9
2020-09-26T02:27:00Z,00000380,01000600,-000.18,0000.50,0000.67,0000.17,-000.14,-000.34,0000.05,-000.13,0000.06,23.0,01.1,0656.6,30.9
2020-09-26T02:28:00Z,00000380,01000600,0000.48,0000.25,0001.21,0000.56,-000.18,-000.02,-000.04,-000.02,-000.02,23.0,01.1,0656.6,30.9
2020-09-26T02:29:00Z,00000380,01000600,0000.74,0000.33,-000.25,-000.39,0000.05,-000.10,0000.14,0000.18,0000.07,23.0,01.1,0656.6,30.9
2020-09-26T02:30:00Z,00000380,01000600,-000.81,0000.75,0000.99,-000.26,-000.04,0000.55,0000.13,-000.14,-000.06,23.0,01.1,0656.6,30.9
2020-09-26T02:31:00Z,00000380,01000600,0001.20,-000.06,0000.28,0001.17,-000.06,0000.03,-000.04,0000.10,0000.10,23.0,01.0,0656.6,30.9
2020-09-26T02:32:00Z,00000380,01000600,0000.63,0000.47,0000.11,-000.47,0000.05,0000.19,0000.01,0000.07,0000.18,23.0,01.0,0656.6,30.9
2020-09-26T02:33:00Z,00000380,01000600,0001.56,0000.08,0000.50,0000.43,0000.16,-000.29,0000.02,0000.06,-000.03,23.1,01.1,0656.6,30.9
2020-09-26T02:34:00Z,00000380,01000600,0001.06,0000.04,0000.58,-000.38,-000.22,0000.24,0000.14,0000.09,-000.01,23.1,01.0,0656.6,31.0
2020-09-26T02:35:00Z,00000380,01000600,-000.23,0000.22,0000.02,0000.05,0000.46,-000.11,-000.05,0000.09,0000.10,23.1,01.0,0656.6,31.0
2020-09-26T02:36:00Z,00000380,01000600,0000.05,-000.00,0000.43,0000.28,-000.06,0000.09,-000.16,-000.06,-000.03,23.1,01.0,0656.6,31.0
2020-09-26T02:37:00Z,00000380,01000600,-000.30,0000.30,0000.95,0000.60,0000.04,0000.39,0000.09,0000.01,-000.04,23.1,01.0,0656.6,31.0
2020-09-26T02:38:00Z,00000380,01000600,0000.84,0000.63,0000.53,0000.35,0000.05,-000.06,0000.06,0000.06,0000.12,23.0,01.1,0656.6,31.0
2020-09-26T02:39:00Z,00000380,01000600,0000.78,-000.12,0001.19,0000.63,0000.05,0000.23,0000.13,-000.11,-000.18,23.0,01.0,0656.6,30.9
2020-09-26T02:40:00Z,00000380,01000600,0000.99,0000.15,0000.95,0000.08,-000.31,0000.05,-000.14,0000.20,0000.15,23.0,01.0,0656.6,30.9
2020-09-26T02:41:00Z,00000380,01000600,0000.16,0000.09,0000.85,-000.02,0000.16,0000.17,0000.18,0000.02,-000.15,23.0,01.0,0656.6,30.9
2020-09-26T02:42:00Z,00000380,01000600,0001.20,0000.14,0000.61,0000.61,-000.05,0000.47,-000.30,-000.18,-000.10,23.0,01.0,0656.6,30.9
2020-09-26T02:43:00Z,00000380,01000600,0000.52,0000.03,0001.00,0000.34,0000.08,-000.11,0000.22,-000.06,0000.22,22.9,01.0,0656.6,30.9
2020-09-26T02:44:00Z,00000380,01000600,0000.68,0000.15,0001.02,0000.06,-000.16,0000.15,-000.01,-000.01,-000.04,23.0,01.0,0656.6,30.9
2020-09-26T02:45:00Z,00000380,01000600,0000.85,0000.38,0000.83,-000.72,0000.19,0000.44,0000.06,0000.08,-000.05,23.0,01.0,0656.6,30.9
2020-09-26T02:46:00Z,00000380,01000600,0001.09,0000.25,0000.62,0000.27,-000.06,0000.18,-000.14,0000.06,0000.01,23.0,00.9,0656.6,30.9
2020-09-26T02:47:00Z,00000380,01000600,0000.39,0000.55,0000.30,0000.14,-000.36,0000.31,0000.07,0000.05,0000.15,23.1,01.0,0656.6,30.9
2020-09-26T02:48:00Z,00000380,01000600,0000.65,0000.59,0000.70,0000.59,-000.03,0000.36,0000.11,0000.04,-000.00,23.1,00.9,0656.6,30.9
2020-09-26T02:49:00Z,00000380,01000600,0000.87,0000.44,0000.79,-000.33,0000.01,0000.10,-000.18,0000.03,-000.05,23.1,00.9,0656.6,30.9
2020-09-26T02:50:00Z,00000380,01000600,-000.42,0000.62,0000.79,0000.28,-000.31,0000.30,0000.17,0000.08,-000.06,23.1,00.9,0656.6,30.9
2020-09-26T02:51:00Z,00000380,01000600,0001.36,0000.36,0000.65,-000.03,-000.01,0000.19,-000.10,0000.03,0000.05,23.1,00.9,0656.6,30.9
2020-09-26T02:52:00Z,00000380,01000600,0000.57,-000.03,0001.37,0000.35,-000.12,0000.62,-000.07,-000.17,0000.01,23.1,00.9,0656.6,30.9
2020-09-26T02:53:00Z,00000380,01000600,0000.55,0001.34,0000.15,0000.49,0000.01,0000.07,0000.02,-000.02,-000.09,23.0,00.8,0656.6,31.0
2020-09-26T02:54:00Z,00000380,01000600,0000.50,0000.10,0000.58,0000.02,-000.08,0000.45,-000.01,0000.01,0000.12,23.0,00.8,0656.6,30.9
2020-09-26T02:55:00Z,00000380,01000600,0000.33,0000.73,0000.45,-000.44,-000.39,0000.10,-000.04,-000.05,-000.11,23.0,00.8,0656.6,30.9
2020-09-26T02:56:00Z,00000380,01000600,0000.88,0000.38,0000.22,0000.05,-000.18,-000.34,0000.03,0000.09,0000.11,23.0,00.8,0656.6,31.0
2020-09-26T02:57:00Z,00000380,41000600,,,,,,,,,,23.0,00.6,0656.5,30.9
2020-09-26T02:58:00Z,00000380,61000600,,,,,,,,,,23.1,00.8,0655.7,30.9
2020-09-26T02:59:00Z,00000380,21000600,,,,,,,,,,23.2,00.8,0655.7,31.0
2020-09-26T03:00:00Z,00000380,21000600,,,,,,,,,,23.2,00.8,0655.7,31.0
2020-09-26T03:01:00Z,00000380,21000600,,,,,,,,,,23.2,00.8,0655.8,31.0
2020-09-26T03:02:00Z,00000380,21000600,,,,,,,,,,23.2,00.8,0655.8,31.0
2020-09-26T03:03:00Z,00000380,61000600,,,,,,,,,,23.3,00.8,0655.8,31.0
2020-09-26T03:04:00Z,00000380,41000600,-000.90,0000.85,-000.30,-000.56,0000.53,-000.10,0000.02,0000.23,0000.14,23.2,00.7,0656.6,30.9
2020-09-26T03:05:00Z,00000380,01000600,-000.23,0000.32,0000.48,-001.31,0000.08,0000.34,0000.11,-000.00,-000.15,23.1,00.7,0656.7,30.9
2020-09-26T03:06:00Z,00000380,01000600,0000.38,0000.16,-000.25,-000.54,0000.12,-000.45,0000.00,-000.03,0000.08,23.1,00.7,0656.7,30.9
2020-09-26T03:07:00Z,00000380,01000600,-000.56,0000.55,-000.11,-000.49,-000.27,0000.01,-000.02,0000.19,0000.03,23.1,00.7,0656.7,30.9
2020-09-26T03:08:00Z,00000380,01000600,0000.50,0000.33,0000.30,-000.55,0000.00,-000.20,0000.03,-000.11,-000.03,23.1,00.7,0656.7,30.9
2020-09-26T03:09:00Z,00000380,01000600,0000.39,0000.33,0000.09,-000.93,-000.18,-000.42,0000.01,-000.00,-000.00,23.0,00.8,0656.7,30.9
2020-09-26T03:10:00Z,00000380,01000600,-000.45,0000.52,0000.26,-000.61,-000.19,-000.00,0000.00,-000.02,0000.08,23.0,00.8,0656.7,30.9